User: anonymous   Login
Location: Newark
(46.7636°N, 1.8358°W)
Time: 15:02:37
(UTC+00:00)
Language:

Courier 1B Rocket - Orbit

View from above orbital plane
View from above orbital plane
View from above satellite
View from above satellite

Ground track
Ground track

The orbit data is extracted from the following two-line orbital elements,

1    59U 60013B   19292.67971684 +.00000084 +00000-0 -16553-5 0  9993
2    59 028.2497 020.1349 0189289 056.9059 304.9508 13.52971603913838
Epoch (UTC): 19 October 2019 16:18:47
Eccentricity: 0.0189289
inclination: 28.2497°
perigee height: 920 km
apogee height: 1202 km
right ascension of ascending node: 20.1349°
argument of perigee: 56.9059°
revolutions per day: 13.52971603
mean anomaly at epoch: 304.9508°
orbit number at epoch: 91383

The dashed part of the orbit path shows where the satellite is in the earth's shadow,  

DLR